Location: Grange Verzio
(44.5000°N, 6.9833°E)
Time: 18:47:50
(UTC+00:00)

BlueWalker 3 - Pass Details

Date: 01 February 2023
Orbit: 497 x 514 km, 53.2° (Epoch: 29 March)

Event Time Altitude Azimuth Distance (km) Brightness Sun altitude
Rises 19:04:04 0° 294° (WNW) 2,608 6.6 -25.7°
Reaches altitude 10° 19:06:37 10° 310° (NW) 1,727 5.3 -26.2°
Enters shadow 19:08:32 20° 337° (NNW) 1,243 4.1 -26.5°
